This is the latest recevied weather packets stored in our database for station/object N3WGC-14. If no packets are shown the sender has not sent any weather packets the latest 10 day(s).
| Time | Temp. | Humidity | Pressure | Rain* | Wind** | Luminosity | Snow |
|---|---|---|---|---|---|---|---|
| 1778197447 | 13.89° C | 71% | 1009.6 hPa | 0 mm | - | - | - |
| 1778197147 | 14.44° C | 71% | 1009.3 hPa | 0 mm | - | - | - |
| 1778196847 | 14.44° C | 70% | 1009.3 hPa | 0 mm | - | - | - |
| 1778196547 | 14.44° C | 70% | 1009.3 hPa | 0 mm | - | - | - |
| 1778196246 | 15° C | 70% | 1009.3 hPa | 0 mm | - | - | - |
| 1778195946 | 15° C | 69% | 1009.1 hPa | 0 mm | - | - | - |
| 1778195646 | 15° C | 69% | 1009.2 hPa | 0 mm | - | - | - |
| 1778195346 | 15.56° C | 70% | 1009.1 hPa | 0 mm | - | - | - |
| 1778195046 | 15.56° C | 69% | 1009.1 hPa | 0 mm | - | - | - |
| 1778194746 | 15.56° C | 70% | 1009.1 hPa | 0 mm | - | - | - |
| 1778194446 | 16.11° C | 70% | 1009 hPa | 0 mm | - | - | - |
| 1778194145 | 16.11° C | 69% | 1009 hPa | 0 mm | - | - | - |
| 1778193845 | 16.11° C | 67% | 1008.9 hPa | 0 mm | - | - | - |
| 1778193545 | 16.11° C | 65% | 1008.9 hPa | 0 mm | - | - | - |
| 1778193245 | 16.11° C | 68% | 1008.9 hPa | 0 mm | - | - | - |
| 1778192945 | 16.11° C | 68% | 1008.8 hPa | 0 mm | - | - | - |
| 1778192645 | 16.11° C | 68% | 1008.8 hPa | 0 mm | - | - | - |
| 1778192344 | 16.11° C | 69% | 1008.9 hPa | 0 mm | - | - | - |
| 1778192044 | 16.11° C | 67% | 1008.9 hPa | 0 mm | - | - | - |
| 1778191744 | 16.11° C | 68% | 1008.8 hPa | 0 mm | - | - | - |
| 1778191444 | 16.11° C | 69% | 1009 hPa | 0 mm | - | - | - |
| 1778191144 | 16.11° C | 68% | 1009.1 hPa | 0 mm | - | - | - |
| 1778190844 | 16.11° C | 65% | 1009.1 hPa | 0 mm | - | - | - |
| 1778190544 | 16.11° C | 65% | 1009 hPa | 0 mm | - | - | - |
| 1778190243 | 16.11° C | 68% | 1009 hPa | 0 mm | - | - | - |
* Rain latest hour (hover to see other rain measurements)
** Current wind speed in m/s (hover to see current wind gust speed)